Location: Pitton
(51.0667°N, 1.7000°W)
Time: 03:09:55
(UTC+00:00)

Cosmos 1461 - Pass Details

Date: 17 September 2019
Orbit: 525 x 643 km, 65.0° (Epoch: 22 October)

Event Time Altitude Azimuth Distance (km) Brightness Sun altitude
Rises 19:40:07 0° 217° (SW) 2,682 6.5 -13.5°
Reaches altitude 10° 19:42:19 10° 216° (SW) 1,783 5.6 -13.8°
Maximum altitude 19:46:18 82° 131° (SE) 539 2.6 -14.4°
Drops below altitude 10° 19:50:16 10° 42° (NE) 1,775 5.2 -15.0°
Sets 19:52:27 0° 42° (NE) 2,670 6.1 -15.3°
